Temp
18 17 17 17 16 16 16 15 15 14 14 14 14 14 14 14 14 14 13 13 13 12 12 12 13 13 12 12 12 12 12 12 12 12 12 12 12 12 12 12 12 12 12 13 13 13 12 12 12 12 13 13 13 13 13 13 13 13 13 13 12 12 12 12 12 12 13 13 13 13 13 13 13 12 12 12 12 11 12 11 11 11 11 11 11
18 18 17 17 16 16 15 15 14 14 14 14 14 14 14 14 14 13 13 13 13 13 13 13 13 13 13 13 12 12 12 12 12 12 12 12 12 13 13 13 12 12 13 12 12 13 12 12 12 12 12 12 13 13 13 13 13 13 13 12 12 12 12 12 12 12 12 13 13 13 13 13 12 12 12 12 11 11 11 11 11 11 11 11 11
18 17 17 17 17 16 15 15 14 14 14 14 14 14 13 13 13 13 12 12 13 13 13 13 13 13 13 13 12 12 12 13 12 12 12 12 13 13 12 12 12 12 12 12 12 12 12 12 12 12 12 12 12 12 13 13 13 13 13 13 12 12 12 12 12 12 12 13 13 13 13 13 12 12 12 11 11 11 11 11 11 11 11 11 11
18 17 17 17 16 16 15 15 14 14 14 14 14 14 14 13 13 13 13 13 13 13 13 13 13 13 13 13 13 13 13 12 12 12 12 13 13 12 12 12 13 13 13 13 12 12 12 12 12 12 12 12 12 12 12 12 12 12 12 12 12 12 12 12 12 12 13 13 13 13 12 12 12 11 11 11 10 10 10 10 10 11 11 10 11
17 17 17 17 16 16 15 15 15 14 14 14 14 14 14 13 13 13 13 13 13 13 13 13 13 13 13 13 13 13 13 12 12 12 12 12 12 13 13 13 13 13 13 13 12 12 12 12 12 12 12 12 12 12 12 12 12 11 11 12 11 11 12 12 12 12 13 13 13 12 12 12 11 11 11 10 10 10 10 10 10 10 10 10 11
17 17 17 16 16 16 15 15 14 14 14 14 14 14 14 13 13 13 13 13 13 13 13 13 13 13 13 13 13 13 13 13 13 13 12 12 13 13 13 13 13 13 12 12 12 12 12 12 12 12 12 12 11 11 11 12 11 11 11 11 11 11 11 12 12 12 12 13 12 12 12 11 11 11 10 10 10 9 9 9 10 10 10 10 11
17 17 17 16 16 15 15 15 14 14 14 14 14 14 14 14 14 14 14 14 14 13 14 14 13 14 14 13 13 13 13 13 13 13 13 13 13 13 12 12 12 12 12 12 12 12 12 11 11 11 11 11 11 11 11 11 11 11 10 10 10 11 11 11 12 12 12 12 12 12 11 11 10 10 10 10 9 9 9 9 9 10 10 10 10
17 16 16 16 16 15 15 15 14 14 14 14 14 14 14 14 14 14 14 14 14 14 14 14 14 14 14 14 13 13 13 13 13 13 13 12 12 12 12 12 12 12 12 12 12 11 11 11 11 11 11 11 11 11 11 11 11 11 11 11 10 10 10 11 11 11 11 12 12 11 11 10 10 10 9 9 9 8 8 9 9 9 10 10 10
16 16 16 16 16 15 15 15 14 14 14 14 14 14 14 14 15 14 14 14 14 14 14 14 14 14 14 14 13 13 13 13 13 13 12 12 12 12 12 12 12 12 12 12 11 11 11 11 11 11 11 11 11 11 11 11 11 11 11 11 11 10 10 10 10 10 10 11 11 11 10 10 10 9 9 9 8 8 8 8 9 9 10 10 10
16 16 16 16 16 15 15 14 14 14 14 14 14 14 14 15 15 14 14 14 14 14 14 14 14 14 14 13 13 13 13 13 13 12 12 12 12 12 12 12 12 12 12 11 11 10 11 11 11 11 11 11 11 11 11 11 11 11 11 11 11 10 10 10 9 9 9 10 10 10 10 9 9 9 9 8 8 8 8 8 8 9 9 9 10
17 16 16 16 15 15 14 14 14 14 14 14 14 14 14 15 15 14 14 14 14 14 14 14 14 14 14 13 13 13 13 13 12 12 12 12 12 12 12 12 12 12 12 11 11 11 11 11 11 11 11 11 11 11 11 11 11 11 11 10 10 10 10 10 9 9 9 9 9 10 9 9 9 9 8 8 8 8 8 8 8 8 9 9 9
17 16 16 16 15 15 14 14 14 14 14 14 14 14 14 14 14 14 14 14 14 14 14 14 14 14 13 13 13 12 12 12 12 12 12 12 12 12 12 12 12 12 11 11 11 11 11 11 11 10 10 10 10 10 10 10 10 10 10 10 10 10 10 10 9 9 8 8 9 9 9 9 9 9 8 8 8 8 8 8 8 8 9 9 9
17 16 16 16 15 15 14 14 14 14 14 14 14 14 14 14 14 14 14 14 14 14 14 14 14 14 13 13 12 12 12 12 12 12 12 12 12 12 12 12 12 11 11 11 11 11 11 10 10 10 10 10 10 10 10 10 10 10 10 10 10 10 10 10 9 9 9 8 8 9 9 9 8 9 8 8 8 8 8 8 8 8 9 9 9
17 16 16 16 15 15 15 14 14 14 14 14 14 14 14 14 14 14 14 14 14 14 14 14 13 13 13 12 12 11 12 12 12 12 12 12 12 12 12 12 12 12 12 11 11 11 11 10 10 10 10 10 10 10 10 10 10 10 10 10 10 10 9 9 9 9 9 9 9 9 9 9 9 9 9 9 8 8 8 8 8 9 9 9 10
17 17 16 16 15 15 15 15 14 14 14 14 14 14 14 14 14 14 14 14 13 13 13 13 13 13 13 12 11 11 11 11 11 11 11 11 12 12 12 11 12 12 12 11 11 11 11 11 10 10 10 10 10 10 10 10 10 10 10 11 11 10 10 10 10 10 9 9 9 9 9 9 9 9 9 9 8 8 8 8 8 9 9 10 10
17 17 16 16 16 15 15 15 14 14 14 13 14 14 14 14 14 14 14 13 13 13 13 13 13 13 13 12 11 10 11 11 11 11 11 11 11 11 11 11 11 11 11 11 11 11 11 11 11 10 10 11 11 11 10 10 11 11 11 11 11 11 10 10 10 10 10 10 10 10 10 10 10 10 10 9 9 9 8 8 9 9 9 9 9
17 17 17 16 16 16 15 14 14 14 13 13 13 14 14 14 14 14 14 14 13 13 13 13 13 12 12 11 10 10 10 10 11 11 11 11 11 11 11 11 11 11 11 11 11 11 11 11 10 10 10 11 11 11 11 11 11 11 11 12 12 12 11 11 10 10 10 10 10 10 10 10 10 10 10 10 9 9 8 8 9 9 9 9 9
17 17 17 16 16 15 14 13 13 13 13 13 14 14 14 14 14 14 14 14 13 13 13 12 12 12 12 11 10 10 10 10 10 11 11 10 10 10 10 10 10 10 10 10 10 10 10 10 10 10 10 11 11 11 11 11 11 11 11 11 12 11 11 11 11 10 10 10 10 10 11 11 10 10 10 10 10 9 9 9 9 9 9 9 9
17 17 17 16 15 14 14 13 13 13 13 13 14 14 14 14 14 14 14 14 13 13 13 12 12 12 12 11 10 10 10 10 10 10 10 10 10 10 10 10 10 10 10 10 10 10 10 10 10 10 10 10 11 11 11 10 10 10 11 11 11 11 11 10 10 10 10 10 10 10 11 11 11 11 10 10 10 10 10 9 9 9 9 9 9
17 17 17 16 15 14 14 13 13 13 13 14 14 14 14 14 13 13 13 13 13 13 13 12 12 12 11 10 10 10 10 10 9 10 10 10 10 10 10 10 10 10 10 10 10 10 10 10 10 10 10 10 10 11 11 10 10 10 10 10 10 10 10 10 10 10 10 10 10 11 11 11 11 11 10 10 10 10 10 10 9 9 9 10 10
16 16 15 15 14 14 14 14 14 13 13 14 14 14 14 14 13 13 13 13 13 13 13 12 11 11 10 10 9 10 10 10 9 9 10 9 10 10 10 10 10 10 10 11 11 10 10 10 10 10 10 10 11 11 10 10 10 10 10 10 10 10 10 10 10 10 10 10 11 11 11 11 11 11 10 10 10 10 10 10 10 10 10 10 10
15 14 14 14 14 14 14 14 14 14 14 14 14 14 14 13 13 13 13 13 13 12 12 11 10 9 9 9 9 9 9 9 9 9 9 9 10 10 10 10 10 11 11 11 11 11 11 11 11 11 11 10 10 10 10 10 10 10 10 10 10 10 10 10 10 10 10 10 11 11 11 11 11 11 10 10 10 10 10 10 10 10 10 10 10
14 14 14 14 14 14 14 14 14 14 14 14 13 13 13 13 13 13 12 12 12 11 10 10 9 9 8 8 8 8 8 9 9 9 9 9 10 10 10 9 9 10 11 11 11 12 11 11 11 11 11 11 11 10 10 10 10 10 10 10 10 10 10 10 10 10 10 11 11 11 11 11 11 11 10 10 10 10 10 10 10 10 10 10 10
14 14 14 13 13 13 13 13 13 13 13 13 13 13 13 12 12 12 11 11 10 10 9 9 9 9 8 8 8 8 8 9 9 9 9 10 10 10 9 9 9 10 10 10 10 11 12 12 11 11 11 11 11 10 10 10 10 10 10 10 10 10 10 10 10 10 10 11 11 11 11 11 11 11 11 10 10 11 11 10 10 10 10 10 11
14 13 13 13 13 13 13 13 13 13 13 13 12 12 12 12 11 11 11 10 10 10 9 9 9 9 9 9 9 8 8 8 9 9 9 9 10 9 9 9 9 9 9 9 9 10 11 11 11 10 10 10 10 10 10 10 10 10 10 10 10 10 10 10 10 10 11 11 11 11 11 11 11 11 11 11 11 11 11 11 10 10 10 11 11
13 13 13 13 13 12 12 12 13 13 13 12 12 12 11 11 11 11 11 10 10 10 10 10 10 10 10 10 9 9 8 8 9 9 9 9 9 9 9 9 9 9 8 8 8 9 9 9 9 9 10 10 10 10 10 10 9 9 10 10 10 10 10 10 10 10 11 11 11 11 11 11 11 11 11 11 11 11 11 10 10 10 10 11 11
13 13 13 13 13 12 12 12 12 13 13 12 12 12 11 11 11 10 11 11 11 11 11 11 11 11 10 10 10 10 9 9 9 9 9 9 9 9 9 9 8 8 8 8 8 8 8 8 9 9 9 9 10 10 10 10 10 10 10 10 10 10 10 10 10 11 11 10 11 11 11 11 11 11 11 11 11 11 10 10 10 10 11 11 11
13 13 13 13 12 12 12 12 12 12 12 12 12 11 11 11 11 11 11 11 11 11 11 11 11 11 11 11 10 10 10 9 9 9 9 9 9 9 8 8 9 9 8 8 8 8 8 8 9 9 9 9 9 10 10 10 10 10 10 10 10 11 11 10 11 11 11 10 11 11 11 11 11 10 11 11 11 10 10 10 10 11 11 11 11
13 12 12 12 12 12 12 12 12 12 12 12 12 11 11 11 11 11 11 11 12 11 11 11 11 11 11 11 11 10 10 10 9 9 9 9 9 9 9 8 9 9 8 8 8 9 9 9 9 9 9 9 9 9 9 10 10 10 10 10 10 11 11 11 11 11 11 11 11 11 10 10 10 10 10 10 10 10 10 10 10 10 11 11 11
12 12 11 12 11 11 11 11 11 11 12 12 12 11 11 11 12 12 11 11 12 12 12 12 12 11 11 11 11 11 11 11 10 10 10 10 10 9 9 8 8 9 8 8 9 9 9 9 9 9 9 9 9 9 9 10 10 10 11 11 11 11 11 11 11 12 11 11 11 11 11 10 10 10 10 10 10 10 10 10 10 10 10 11 11
12 11 11 11 11 11 11 11 11 11 12 12 11 11 11 11 12 12 11 11 11 11 12 12 12 11 11 12 12 12 11 11 11 11 10 10 10 9 9 8 8 8 8 8 9 9 9 9 10 10 10 10 10 10 10 11 11 11 11 12 11 11 12 12 12 11 11 11 11 11 11 11 10 10 10 10 10 10 10 10 10 10 11 11 11
12 12 11 11 11 11 11 11 11 11 12 12 11 11 11 11 10 11 11 11 11 11 11 11 11 11 11 11 11 12 11 11 11 11 11 10 9 9 8 8 8 8 8 8 9 9 9 9 10 10 10 11 11 11 11 11 12 12 12 12 12 12 12 12 12 11 11 11 11 11 11 11 10 10 10 10 10 10 10 10 10 11 11 11 11
12 12 11 11 10 10 10 11 11 11 11 11 11 11 11 10 9 9 9 9 10 10 10 11 11 11 11 11 11 11 11 11 11 11 10 9 9 8 8 8 8 8 9 9 9 9 9 9 10 10 11 11 11 12 12 12 12 12 12 12 12 12 12 12 12 12 11 11 11 11 11 11 10 10 10 10 10 10 10 10 10 11 11 11 11
12 12 11 11 10 10 10 10 11 11 11 11 11 11 11 10 9 8 8 8 8 9 9 9 10 10 10 10 10 10 11 11 10 10 9 9 8 8 8 8 8 8 8 9 8 9 9 9 9 10 10 11 12 12 12 13 13 13 13 12 13 12 12 12 12 12 11 11 11 11 11 10 10 10 10 10 10 10 10 10 10 10 11 11 10
12 12 11 11 10 10 10 10 10 11 11 11 12 12 11 11 10 9 8 8 8 8 8 8 8 8 9 9 9 9 9 9 9 9 8 8 8 8 8 8 7 8 8 8 8 8 8 9 9 9 10 11 11 12 12 13 13 13 13 12 12 12 12 12 12 12 12 11 11 11 11 11 11 11 10 10 10 10 10 10 10 10 11 11 10
12 12 11 11 10 10 10 10 10 11 11 11 12 12 12 11 10 9 9 9 8 8 7 7 7 7 8 9 9 9 8 8 8 8 8 8 8 8 7 7 7 7 8 8 8 8 8 8 9 9 10 10 11 11 12 12 13 13 12 12 12 12 12 12 12 12 11 11 11 11 11 11 11 11 10 10 10 10 10 11 11 11 11 11 10
13 12 11 11 10 10 10 10 11 11 11 11 11 11 11 11 10 10 9 9 8 8 7 6 6 7 7 7 8 8 8 8 8 8 8 8 8 8 7 7 7 7 7 7 8 8 8 8 9 9 9 10 10 11 11 12 12 12 12 12 12 12 12 12 11 11 11 11 11 11 11 11 11 11 10 10 10 10 11 11 11 11 11 10 10
12 12 11 11 11 11 10 10 10 10 11 11 11 11 11 10 10 10 9 9 9 8 7 6 6 6 6 6 7 7 7 7 7 7 7 7 7 7 7 7 7 7 7 7 8 8 8 8 9 9 9 10 10 11 11 11 12 12 12 12 12 12 11 11 11 11 11 11 11 11 11 11 10 10 10 10 10 10 10 10 10 10 10 10 10
12 12 11 11 11 11 10 10 10 10 10 11 11 11 10 10 10 9 9 9 8 8 7 6 6 6 6 6 6 6 7 7 7 7 7 7 7 7 7 7 7 7 7 8 8 8 9 9 9 9 10 10 10 11 11 11 11 11 11 11 11 11 11 11 11 11 10 10 10 10 10 10 10 10 10 10 10 10 10 9 9 9 9 9 9
12 11 11 11 11 11 11 10 10 10 10 10 10 10 10 9 9 8 8 8 8 7 6 6 6 6 6 6 6 6 7 6 6 6 7 7 7 7 7 7 7 7 7 8 8 9 9 9 9 10 10 10 10 11 11 11 11 11 11 11 11 10 10 10 10 10 10 10 10 10 10 10 10 10 10 10 9 9 9 9 9 9 9 9 8
12 11 11 11 10 10 10 10 10 10 10 10 10 9 9 9 9 8 8 8 7 7 7 7 6 6 7 7 7 7 7 6 6 6 7 7 7 6 7 7 7 7 8 8 8 9 9 9 9 10 10 10 10 10 10 10 10 10 10 10 10 10 10 10 10 10 10 10 10 10 10 10 9 9 9 9 8 8 8 8 8 8 8 7 7
12 11 11 10 10 10 10 10 10 9 9 10 9 9 9 9 8 8 8 8 8 8 8 8 7 7 7 7 7 7 6 6 6 6 6 7 7 7 7 7 7 7 8 8 8 8 9 9 9 9 10 10 10 10 10 10 10 10 10 10 10 10 9 9 9 9 9 9 9 9 9 9 9 8 8 8 7 7 7 7 7 7 6 6 6
11 11 10 10 11 10 10 10 9 9 9 9 9 9 9 9 8 8 8 8 8 8 8 8 7 7 7 7 7 6 6 6 6 6 6 7 7 7 7 7 7 7 8 8 8 8 8 9 9 9 9 9 10 10 10 10 10 10 9 9 9 9 9 9 9 9 9 9 9 8 8 8 7 7 7 6 6 6 6 6 6 5 5 5 5
11 10 10 10 10 10 10 10 9 9 9 9 9 9 9 9 9 9 8 8 8 8 8 8 7 7 7 7 6 6 6 7 7 7 7 7 7 7 8 8 8 8 8 8 8 8 8 8 9 9 9 9 9 9 9 9 9 9 9 9 9 9 8 8 8 8 8 8 7 7 7 6 6 5 5 5 5 5 5 5 4 4 4 4 4
10 10 9 9 9 10 9 9 9 9 9 9 9 8 9 8 8 8 8 8 8 8 8 8 7 7 7 7 6 6 7 7 8 7 7 7 8 8 8 8 8 8 8 8 8 8 8 8 8 9 9 9 9 9 9 9 9 9 8 8 8 8 8 7 7 7 6 6 6 6 5 5 5 4 4 4 4 4 4 3 3 3 3 3 3
9 9 9 9 9 9 8 8 8 8 8 8 8 8 8 8 9 8 8 8 7 8 8 8 8 7 7 7 6 6 7 7 8 8 8 8 8 8 8 8 8 8 8 8 8 8 8 8 8 8 8 8 8 8 8 8 8 8 8 8 8 7 7 6 6 6 5 5 5 5 4 4 4 3 3 3 3 3 2 2 2 2 2 2 1
8 8 8 8 8 8 7 7 7 7 8 8 8 8 8 9 8 8 8 7 7 8 8 8 8 7 7 7 7 7 7 7 7 8 8 8 8 8 8 8 8 8 8 8 8 8 8 8 8 8 8 8 8 7 7 7 7 7 7 7 6 6 5 5 5 5 5 4 4 4 3 3 2 2 2 2 2 2 1 1 1 1 1 0 0
7 7 7 7 7 7 7 7 7 7 7 8 8 8 8 8 8 8 8 8 8 8 8 8 8 7 7 7 7 7 7 7 7 7 7 7 7 7 8 8 8 8 8 8 8 7 7 8 8 8 8 7 7 7 7 7 7 7 6 5 5 5 5 4 4 4 4 3 3 3 2 2 2 2 2 1 1 0 0 0 0 -0 -0 -1 -1
7 7 6 6 6 7 7 7 7 7 7 7 7 7 7 7 7 7 7 7 7 8 8 8 7 7 7 7 7 7 7 7 7 7 7 8 8 8 8 8 8 8 7 7 7 7 7 7 7 7 7 7 6 6 6 6 6 5 5 4 4 4 4 3 3 3 2 2 2 2 1 1 1 1 1 0 -0 -0 -1 -1 -1 -1 -2 -2 -1
7 7 6 6 6 6 6 7 7 7 7 7 7 7 7 7 7 7 7 7 7 7 7 7 7 7 7 7 7 7 7 7 7 7 8 8 8 8 8 8 7 7 7 7 7 7 6 6 6 6 6 6 6 5 5 5 4 4 3 3 3 3 2 2 2 2 2 2 1 1 0 0 -0 -1 -1 -1 -1 -1 -1 -2 -2 -2 -2 -2 -2
7 7 7 6 6 6 6 6 6 6 6 6 6 6 6 6 6 6 6 7 7 7 7 7 7 7 7 8 8 8 8 8 8 8 8 8 8 8 8 7 7 7 6 6 6 6 6 5 5 5 5 5 4 4 4 3 3 3 2 2 2 2 1 1 1 1 1 1 0 -0 -1 -1 -1 -2 -2 -2 -2 -2 -2 -3 -3 -3 -3 -3 -2
Height
774 777 780 783 785 788 791 794 796 798 800 802 804 805 807 809 811 813 816 817 818 819 821 822 824 826 828 830 832 834 835 836 837 838 839 840 841 843 844 845 845 846 847 848 849 850 850 852 853 854 854 855 855 856 856 857 857 857 856 856 855 855 854 854 854 854 854 853 853 852 851 850 848 847 845 843 842 839 837 835 833 831 830 827 825
773 776 778 781 785 788 790 793 795 797 799 802 804 806 808 809 811 814 816 818 819 820 822 824 826 827 829 831 833 835 836 837 838 839 839 841 842 844 845 845 846 847 848 849 850 851 851 853 854 854 855 855 856 857 857 858 858 857 856 856 855 855 855 855 855 855 854 853 853 852 851 850 849 847 846 844 842 840 837 835 833 831 829 827 825
771 775 778 781 784 787 790 792 795 797 800 802 804 805 808 810 812 815 817 819 820 821 823 825 827 828 829 832 834 835 837 838 839 840 840 841 843 844 845 846 847 848 849 850 850 851 852 854 854 855 856 856 857 858 858 858 858 857 856 856 855 855 855 855 855 855 854 853 852 852 851 850 849 848 846 844 842 840 838 836 833 831 829 827 825
770 774 777 780 783 787 789 792 795 797 799 802 803 805 808 810 813 816 818 819 821 822 824 825 827 829 830 833 834 836 837 838 839 840 841 842 843 844 846 847 848 849 849 850 851 852 853 854 855 855 856 857 858 858 858 858 858 857 856 856 855 855 855 855 855 855 854 853 852 852 851 850 850 849 847 845 842 840 839 837 834 831 830 827 825
770 773 776 780 783 786 789 792 795 797 799 801 803 805 808 811 814 816 817 819 821 823 824 826 828 829 831 833 834 835 837 838 839 840 841 842 844 845 846 847 848 849 850 851 852 853 855 855 856 856 857 858 858 859 859 859 858 857 856 856 855 855 855 855 855 854 854 853 852 852 852 851 851 850 848 845 842 840 838 836 834 832 830 827 825
769 773 776 779 782 786 789 792 794 797 799 801 803 805 808 811 813 816 817 819 821 823 825 826 828 829 831 832 834 835 836 838 839 840 841 843 844 846 847 847 849 849 850 852 853 854 855 856 856 857 858 858 859 859 859 859 858 857 856 856 855 855 855 855 855 854 854 853 852 852 852 852 851 850 848 846 844 841 838 835 833 832 830 827 824
769 772 775 778 782 785 788 791 793 795 798 800 802 805 808 811 813 815 818 819 821 823 825 826 828 829 831 832 833 835 836 838 839 840 842 843 844 845 846 847 849 850 851 852 853 855 855 856 856 856 857 858 858 859 859 859 858 857 856 856 856 855 855 855 855 854 854 853 853 853 853 853 852 850 848 846 844 842 839 835 832 831 830 827 824
768 771 774 778 781 784 788 790 792 795 797 799 802 805 807 810 813 815 817 819 821 823 824 826 828 829 831 832 833 835 836 837 839 840 841 843 844 845 846 848 849 850 851 852 854 854 855 855 855 856 857 858 859 859 860 859 859 858 857 856 856 856 856 855 855 855 854 853 854 854 854 853 852 851 849 846 844 841 839 837 834 832 830 827 825
768 771 774 777 780 784 787 789 791 794 796 798 801 804 807 810 812 815 816 818 820 823 824 826 828 829 830 832 833 834 836 837 838 840 841 842 844 845 846 848 849 850 851 853 854 854 855 855 856 857 858 858 859 860 860 860 859 859 858 857 857 856 856 856 856 855 855 854 854 854 854 854 853 851 849 847 845 843 841 839 836 833 831 828 825
768 771 774 777 780 783 786 789 791 793 795 797 801 804 807 809 812 814 816 817 820 822 824 826 827 829 830 831 833 834 835 837 838 839 841 842 844 845 846 848 849 850 851 853 854 854 855 855 856 857 858 859 860 860 861 861 860 860 859 858 858 857 857 857 856 856 856 855 855 855 854 854 854 852 851 848 846 844 842 839 837 834 832 828 825
767 770 773 777 780 783 785 788 790 792 794 797 800 803 806 809 811 813 815 817 820 822 824 825 827 828 829 831 832 833 834 836 837 839 841 842 844 845 847 848 849 850 852 853 854 854 855 856 856 857 858 859 860 861 861 861 861 861 860 860 859 858 858 857 857 856 856 856 856 856 855 855 854 853 852 849 846 844 842 840 838 835 832 829 826
765 769 773 776 779 781 785 787 789 792 794 797 801 803 806 808 810 813 815 817 819 821 823 825 826 828 829 830 832 832 834 835 837 839 840 842 844 845 847 848 849 850 852 853 855 855 855 856 857 858 858 859 861 861 862 862 862 862 861 860 860 859 859 858 857 857 856 856 856 856 856 855 854 853 852 849 847 845 843 841 839 836 834 831 827
765 769 772 776 778 780 784 786 788 792 794 797 801 803 806 808 810 812 815 817 819 821 823 825 826 827 828 830 831 831 833 835 837 839 840 842 843 845 846 848 849 851 852 854 855 856 856 856 857 858 859 859 861 861 861 862 862 861 861 860 860 860 859 858 858 857 857 857 856 856 856 855 854 853 851 850 848 846 844 841 839 837 835 832 828
765 769 772 775 778 780 783 785 788 791 793 797 800 803 805 807 809 812 814 816 818 820 822 824 825 827 828 829 830 831 833 835 836 838 840 841 843 844 846 848 850 852 854 855 856 857 857 857 857 858 858 859 860 861 861 861 861 861 860 860 860 859 859 858 858 857 857 856 856 856 855 855 853 852 851 851 849 848 845 842 839 838 836 833 830
765 768 771 774 777 779 782 785 788 790 793 797 799 802 805 807 809 812 814 816 818 820 822 824 825 826 828 828 829 830 833 835 836 838 840 841 843 844 846 847 848 850 852 854 855 857 857 857 857 858 858 859 859 860 860 861 861 860 860 859 859 859 858 858 857 857 857 856 856 855 854 854 853 852 851 851 849 848 846 844 841 839 837 834 831
764 767 770 773 776 778 781 784 787 789 793 796 798 801 804 806 808 811 813 815 818 819 821 823 824 826 827 827 828 830 832 834 836 838 840 841 842 843 845 847 847 848 850 851 853 855 857 857 857 857 857 858 859 860 860 861 861 860 860 859 859 859 858 858 858 857 857 856 855 855 854 854 853 852 851 850 849 848 846 844 842 840 837 834 832
763 766 769 772 775 778 780 783 785 788 791 794 797 800 803 805 807 809 811 814 816 818 821 823 824 825 826 826 827 829 832 833 835 838 839 840 842 843 845 846 847 848 849 850 851 853 855 856 856 857 857 858 859 859 860 861 860 860 860 860 860 859 858 858 857 856 856 855 855 854 854 853 852 851 850 849 848 847 845 843 841 840 837 835 832
762 764 768 772 775 778 780 781 782 785 788 792 795 798 801 804 806 808 810 813 815 818 820 822 823 825 825 825 826 829 831 833 835 837 838 840 841 843 845 846 847 849 849 850 850 852 854 856 856 856 856 857 858 859 860 860 860 860 860 859 859 858 857 857 856 856 855 855 854 853 853 852 851 850 849 848 848 846 845 843 841 840 837 835 832
761 764 768 771 774 776 778 778 780 783 787 791 794 796 800 803 805 807 810 812 814 817 819 821 823 824 824 824 826 828 830 832 834 836 837 839 841 842 844 846 847 848 850 850 850 851 853 855 855 855 855 856 858 858 859 860 859 859 859 859 858 857 857 856 856 855 855 854 852 852 852 851 851 850 849 848 847 846 845 843 842 840 837 835 833
762 765 767 769 771 773 774 777 780 782 786 789 793 796 799 802 804 806 809 812 814 816 818 820 822 823 823 824 826 828 830 831 833 835 836 838 840 841 843 845 846 848 849 850 850 850 852 853 854 854 855 856 857 857 858 859 859 859 859 858 857 857 856 856 855 854 854 853 851 851 851 851 850 850 849 848 847 846 845 844 842 840 837 835 833
763 765 767 768 770 772 774 777 779 782 786 790 793 796 799 801 803 805 808 810 812 814 816 818 820 820 821 823 825 827 829 831 833 834 836 838 839 841 842 844 845 847 848 849 849 849 850 852 853 853 854 855 856 857 857 858 858 858 858 857 857 857 856 855 855 854 853 851 851 851 851 851 850 849 849 848 847 845 844 843 841 839 837 835 832
762 764 766 767 770 772 775 777 780 784 787 790 793 795 797 799 802 804 807 809 810 812 814 816 818 819 820 822 824 826 827 830 832 834 836 837 839 841 842 843 844 846 846 847 847 848 848 849 851 852 853 854 855 856 856 857 857 857 857 857 857 856 856 855 854 853 852 851 851 851 850 850 849 849 848 847 846 845 843 842 841 839 837 835 832
761 763 765 767 769 772 775 777 779 783 786 788 790 793 795 798 801 803 805 807 809 811 813 815 818 819 821 823 824 825 826 828 830 833 835 837 838 840 841 842 843 844 845 845 845 846 846 847 849 851 852 853 854 855 855 856 856 857 857 857 856 856 855 855 854 853 851 850 850 850 849 849 849 848 847 846 845 844 843 841 840 838 836 834 832
759 762 765 766 768 770 773 776 778 781 784 787 789 792 794 797 799 802 804 806 808 810 813 815 817 819 821 823 824 824 825 827 829 831 833 836 837 839 840 842 843 843 844 843 843 843 844 845 847 849 850 852 853 853 854 855 856 856 856 856 856 855 855 854 853 852 851 850 850 849 848 848 847 847 846 845 844 843 842 841 839 838 836 833 831
758 760 763 765 767 770 773 776 778 780 783 787 789 791 794 796 799 802 804 806 808 810 812 815 817 818 820 821 822 823 824 825 827 830 832 835 836 838 839 841 842 843 843 843 843 843 844 845 846 848 849 850 851 852 853 854 855 855 855 855 855 854 854 853 852 852 851 851 850 849 848 847 847 846 846 844 843 842 841 840 839 837 835 833 830
757 760 762 764 766 770 773 776 777 779 782 786 788 791 794 796 799 801 803 805 807 809 811 813 815 817 818 819 820 822 822 823 825 828 831 833 835 837 839 840 841 842 842 843 844 844 845 846 847 848 849 849 850 851 852 853 853 854 854 854 853 853 852 852 852 851 851 850 850 849 848 847 846 845 845 844 843 842 841 839 838 836 834 832 829
757 759 761 764 766 769 772 774 776 778 782 785 788 791 794 796 798 800 802 804 806 807 810 811 812 814 815 817 818 819 820 822 823 825 828 831 833 835 837 839 840 841 841 843 844 845 845 846 847 848 848 849 850 850 851 851 852 852 852 852 852 851 851 851 850 850 850 849 849 849 848 847 846 845 844 843 842 841 840 839 837 835 833 831 829
757 759 761 764 766 767 770 773 775 777 780 784 787 790 792 794 796 797 799 801 803 804 806 808 809 811 812 814 815 817 818 819 820 822 825 828 831 834 836 837 838 839 840 842 844 845 845 845 846 847 847 848 849 849 850 850 850 850 851 850 850 849 849 849 849 848 848 848 848 848 847 847 846 844 843 842 841 841 840 838 836 835 832 830 828
756 758 760 762 764 766 769 772 774 776 779 783 786 789 791 793 794 796 798 800 801 802 803 805 807 808 810 811 813 814 815 816 817 819 822 826 829 831 833 835 837 838 839 841 843 844 845 845 846 846 846 847 847 848 848 848 848 848 848 848 848 847 847 847 847 846 846 846 846 847 846 846 845 844 843 842 841 840 839 837 836 834 832 829 827
755 757 759 761 763 765 768 771 773 776 779 782 785 787 790 792 794 796 798 800 801 802 803 804 805 807 808 809 811 811 813 814 816 818 821 824 827 829 831 834 835 837 839 841 842 844 844 844 845 845 846 846 846 846 847 847 847 846 846 845 845 846 846 846 846 845 845 845 845 845 845 845 844 843 842 841 840 839 838 837 835 834 831 829 827
754 757 758 760 762 764 767 770 772 775 778 781 783 785 788 791 793 795 797 799 800 801 803 803 804 805 807 808 809 810 812 813 815 817 819 821 824 827 830 833 835 837 838 840 841 842 842 843 844 844 844 845 845 845 845 845 844 844 844 844 844 844 844 844 844 844 844 844 844 844 844 844 843 842 841 840 839 838 837 836 835 833 830 828 827
753 755 758 760 762 764 767 769 771 774 777 780 782 784 786 789 792 794 796 798 799 800 802 803 804 804 805 807 808 810 811 812 813 815 817 820 823 826 829 832 835 837 838 839 840 840 841 842 842 842 843 843 843 843 843 842 842 842 842 842 842 842 842 842 842 843 843 843 843 843 842 842 841 840 839 839 838 837 836 834 833 831 829 828 826
752 754 756 759 762 764 767 768 771 774 776 778 780 782 784 786 789 792 795 797 798 799 800 802 803 804 805 806 808 809 810 811 812 814 816 818 821 824 827 830 834 837 838 838 839 840 840 841 841 841 841 841 841 841 841 840 840 840 840 841 840 840 840 840 840 841 841 841 841 841 840 840 839 838 838 837 836 835 834 833 831 830 828 827 825
752 753 755 757 760 763 765 767 770 772 774 776 778 780 782 785 788 790 793 795 797 799 800 801 802 803 804 806 807 808 809 810 811 814 816 819 822 825 827 829 833 836 838 839 839 839 840 840 840 840 840 840 839 839 839 838 838 838 839 839 839 839 839 839 839 839 839 839 839 838 838 838 837 837 836 835 834 833 832 830 829 828 826 825 824
752 753 754 756 759 761 764 766 769 771 773 775 777 779 782 784 786 789 791 793 796 798 800 801 802 803 804 806 807 808 809 811 812 814 817 819 822 825 827 828 831 833 834 836 837 838 839 840 840 839 839 838 838 838 837 837 837 837 837 837 838 838 838 838 838 838 837 837 837 836 836 836 836 835 835 833 832 831 829 828 827 826 824 823 821
751 753 755 757 759 761 763 766 768 770 772 774 775 778 780 782 784 787 790 792 794 796 798 801 803 805 806 806 807 807 809 811 813 815 817 819 820 822 823 825 826 828 829 831 833 834 836 838 838 838 838 837 837 836 836 836 835 835 836 836 836 837 837 837 837 836 836 836 835 835 835 835 835 834 833 832 830 829 828 826 825 824 823 821 819
751 752 754 757 759 761 763 765 767 769 770 772 774 777 779 781 783 785 788 791 793 795 798 800 802 804 806 806 807 807 808 810 812 815 817 818 818 820 821 821 822 824 825 826 828 829 831 833 835 836 836 836 836 835 835 835 834 834 834 834 835 835 836 836 835 835 834 834 834 834 834 834 833 832 831 830 828 827 826 825 824 822 821 819 818
750 752 754 757 759 761 763 765 766 768 770 772 774 776 778 780 782 784 786 789 791 794 796 798 800 802 803 805 806 807 808 810 811 813 814 816 817 818 819 820 821 822 823 824 825 826 827 828 830 832 833 834 834 834 834 833 833 833 833 833 833 834 834 834 834 833 833 833 833 833 833 832 832 831 830 828 827 826 825 824 822 821 819 818 816
750 752 754 756 758 760 762 764 766 768 771 773 775 776 778 779 781 782 784 787 789 792 794 796 798 800 802 803 804 805 807 808 809 810 812 814 815 816 818 819 820 821 822 823 823 824 824 825 826 828 830 831 832 832 832 832 831 831 832 832 832 832 832 833 833 833 833 832 832 832 832 831 830 829 828 827 826 824 823 822 821 819 818 816 815
750 752 754 756 758 760 762 763 765 768 771 773 775 776 777 779 780 782 784 786 788 791 793 795 797 799 800 800 801 802 803 805 806 808 810 812 814 815 817 818 819 820 821 822 822 822 822 822 823 825 826 828 829 830 830 830 829 830 830 831 831 831 831 831 831 831 831 831 831 830 830 829 828 827 826 825 824 823 822 820 819 818 816 815 813
750 752 754 756 758 759 761 763 765 767 769 772 773 775 776 778 780 782 783 785 787 790 792 794 796 797 797 798 799 800 801 803 805 807 809 811 813 814 816 817 818 819 820 821 821 821 821 821 822 823 824 826 826 827 827 827 828 829 829 829 829 830 830 830 830 830 830 830 829 828 827 827 826 825 824 823 822 821 820 819 818 817 815 814 813
749 751 753 755 757 759 760 763 765 766 768 771 772 774 775 777 779 781 783 784 786 788 790 791 793 795 796 797 799 800 802 803 805 807 809 810 812 813 815 816 817 819 820 820 820 820 820 820 821 822 823 824 824 824 825 826 826 827 827 828 828 828 828 829 829 829 828 828 827 826 825 825 824 823 822 822 821 820 819 818 817 815 814 813 812
749 751 753 754 756 758 760 762 764 765 768 770 771 773 775 777 779 781 782 784 786 787 788 790 791 793 795 797 799 801 803 804 806 807 808 810 811 813 814 815 816 817 818 819 819 819 820 820 821 822 822 823 823 824 824 825 825 826 826 826 827 827 827 827 827 827 826 826 825 824 823 823 822 822 821 821 820 819 818 817 815 814 813 812 811
750 752 753 754 756 758 759 761 762 764 766 768 770 772 774 777 778 780 782 783 785 786 788 789 790 791 793 795 798 801 803 804 805 806 808 809 810 811 813 814 815 815 816 817 817 818 819 820 821 821 822 822 823 823 824 824 824 824 825 825 826 826 826 826 825 825 824 824 823 822 822 822 821 821 820 820 819 817 816 815 814 813 813 812 811
750 752 754 755 757 758 759 761 763 764 765 768 770 772 774 776 778 780 781 783 785 786 787 789 789 790 792 794 797 799 802 803 804 805 806 807 809 810 811 812 813 814 815 816 817 818 819 819 820 821 821 822 822 822 823 823 823 823 823 824 824 824 824 824 823 823 822 822 822 822 821 821 821 820 819 818 817 817 816 815 814 813 812 811 810
751 753 754 756 757 758 760 762 764 765 766 768 770 772 774 776 778 779 781 782 784 786 787 788 789 790 791 794 796 798 801 802 803 804 805 806 807 808 810 811 812 813 814 815 816 817 818 818 819 820 820 821 821 821 822 822 822 822 822 822 822 822 822 822 822 822 822 821 821 821 820 820 820 819 818 817 816 816 815 814 814 813 812 811 810
752 754 755 756 758 759 761 762 764 766 767 769 771 773 775 776 777 778 780 782 784 786 787 787 788 789 791 793 795 797 799 801 801 803 804 805 806 807 809 810 811 812 813 814 815 815 816 817 818 818 819 819 820 820 820 820 821 821 821 821 821 821 821 821 821 821 821 820 820 820 819 819 818 818 817 816 816 815 814 814 813 812 811 810 809
753 755 756 757 759 760 761 763 765 766 768 769 771 773 775 776 776 778 780 782 783 785 786 787 788 789 790 792 794 796 798 799 800 801 803 804 805 806 808 808 809 811 812 813 814 814 815 816 816 817 817 817 818 818 818 819 819 819 819 820 820 820 820 820 820 819 819 819 819 819 818 818 817 817 816 816 815 815 814 813 812 811 810 810 809
754 756 757 758 759 761 762 764 765 767 768 769 771 773 774 776 776 778 780 782 783 784 785 786 787 788 790 792 793 795 796 798 799 800 801 802 804 805 806 807 808 810 811 811 812 813 814 815 815 815 816 816 817 817 817 818 818 818 819 819 819 819 819 819 819 818 818 818 818 818 817 817 816 816 816 815 815 814 813 813 812 811 810 809 808
755 756 757 758 759 761 763 764 766 767 768 770 771 773 774 776 776 777 779 781 782 784 785 785 786 788 789 791 792 794 795 796 798 799 800 801 803 804 805 806 808 809 810 810 811 812 813 813 814 814 815 815 816 816 817 817 817 818 818 818 818 818 818 818 818 818 818 817 817 817 816 816 816 816 815 815 814 814 813 812 811 810 809 809 808
755 756 757 759 760 761 763 765 766 768 769 770 772 773 774 775 776 777 779 780 782 783 784 785 786 787 788 790 791 793 794 795 797 798 799 800 802 803 804 806 807 808 809 810 811 811 812 812 813 813 814 814 815 815 816 816 816 817 817 817 817 817 818 818 818 817 817 817 817 816 816 816 816 816 815 814 814 813 812 812 811 810 810 809 808
Wind_Speed
24 25 25 23 22 22 21 19 19 19 20 23 26 24 22 21 21 22 22 21 20 19 17 17 16 16 15 15 15 15 15 15 16 16 16 16 16 16 15 15 16 16 15 14 13 13 13 12 11 10 10 10 10 9 8 7 7 8 9 10 11 12 12 12 9 8 12 14 15 16 17 20 21 22 24 27 29 28 25 24 24 23 24 26 25
24 26 26 24 23 23 23 22 20 18 20 24 25 23 22 21 21 22 22 21 19 17 17 17 16 15 16 15 15 15 15 16 15 15 16 17 16 15 14 15 15 15 14 14 13 13 12 11 11 10 11 10 10 8 7 7 7 8 9 10 11 12 11 11 9 8 11 13 14 15 16 19 20 21 23 26 28 27 25 25 25 24 25 26 25
26 27 26 24 25 25 24 23 21 20 22 24 24 23 22 21 21 20 19 19 17 17 17 17 16 16 16 16 15 16 15 15 15 16 17 17 16 15 14 15 15 14 14 14 13 13 12 11 10 10 10 9 9 8 7 7 7 8 9 10 11 11 10 10 10 9 10 12 13 15 17 18 19 21 23 25 27 25 24 24 24 24 26 27 25
28 27 25 25 26 26 24 23 23 23 23 24 24 23 22 21 20 18 18 18 17 17 18 17 16 16 17 16 16 16 16 15 16 16 16 15 15 15 15 15 14 14 14 13 12 12 11 10 10 9 9 9 8 8 7 8 8 9 9 10 11 11 10 9 9 9 10 11 12 15 17 17 18 20 22 24 27 25 22 23 24 23 25 27 25
29 27 25 26 26 26 24 24 25 24 24 25 25 24 23 21 19 18 19 18 17 18 18 17 16 17 17 17 17 17 16 16 17 16 16 15 16 16 15 15 14 14 14 13 12 11 10 10 9 8 8 8 7 7 7 8 8 9 10 11 10 10 10 10 10 10 10 10 12 14 16 16 18 19 21 24 26 25 24 24 23 22 24 27 25
28 26 25 27 26 25 25 26 26 24 25 27 27 25 23 21 19 19 19 19 18 18 18 17 17 17 18 18 18 17 17 17 17 17 17 16 16 15 15 15 15 14 14 13 12 11 10 10 9 8 7 7 6 5 6 7 8 9 10 10 10 10 11 11 11 11 10 10 12 14 16 16 18 20 21 23 24 24 25 25 25 23 25 28 25
28 27 27 27 25 25 25 26 25 25 28 30 28 25 23 21 20 19 19 20 19 19 18 17 17 18 18 18 18 18 18 18 18 18 17 17 16 16 16 15 15 14 14 13 12 11 10 10 9 9 8 7 6 5 6 7 7 7 8 9 10 10 11 11 12 12 12 11 11 13 15 15 17 19 21 23 23 23 24 25 25 25 26 28 25
28 28 28 26 25 25 26 25 24 26 30 31 28 24 22 21 20 20 21 20 19 19 18 18 18 18 18 19 19 19 19 19 19 18 18 17 17 17 17 16 16 15 14 13 12 11 10 10 10 9 8 7 7 7 7 7 7 8 9 9 9 9 9 11 12 13 13 11 11 12 14 15 17 19 21 23 23 24 26 25 24 25 27 28 25
27 27 26 25 25 26 26 25 25 28 31 30 27 24 22 21 21 21 22 21 19 18 18 18 19 19 19 19 19 20 19 19 19 19 18 18 18 17 17 16 16 16 15 13 12 11 10 11 11 10 10 9 9 8 7 7 9 10 11 11 11 10 9 9 10 12 13 12 12 12 13 14 17 19 21 23 23 24 26 25 23 23 26 27 24
26 25 24 24 25 26 26 25 26 31 32 29 26 24 22 21 21 21 21 20 19 18 18 19 19 19 20 20 20 20 19 19 20 19 19 19 18 17 17 16 16 16 15 14 12 11 12 13 14 13 13 12 11 10 9 9 10 11 11 11 11 11 10 9 9 10 11 11 12 13 13 14 16 18 20 22 24 25 25 25 23 23 24 24 22
26 24 23 25 25 26 25 25 28 32 31 28 26 24 22 22 21 20 20 20 19 19 19 19 19 20 21 21 20 20 19 20 21 20 19 19 18 18 17 17 16 15 15 14 13 13 15 16 15 14 13 12 10 9 9 9 9 9 10 11 11 11 10 10 9 9 9 10 12 13 12 14 16 16 18 21 24 26 25 24 23 23 23 21 18
25 24 24 26 26 25 25 28 31 31 29 27 26 24 22 22 21 20 20 20 19 19 19 19 20 20 21 21 20 19 19 22 22 21 21 19 18 18 17 17 16 15 15 13 13 14 14 13 12 11 10 9 8 6 6 6 5 5 5 5 7 8 9 9 9 9 9 8 11 12 12 13 14 15 18 19 22 25 26 25 24 23 23 21 20
25 24 25 26 27 25 25 28 29 28 28 27 26 24 23 22 21 20 20 20 19 19 18 19 20 20 21 21 19 18 21 23 24 23 22 21 19 18 17 16 16 15 14 13 13 13 12 11 10 8 8 7 4 2 2 2 2 3 4 3 3 3 5 9 9 9 9 8 8 10 11 12 13 15 17 17 19 22 24 26 26 24 24 25 24
25 25 26 26 26 25 26 27 27 28 28 27 26 25 23 22 21 20 20 20 19 19 18 19 19 20 21 20 17 18 22 24 25 24 23 21 20 18 17 16 15 13 13 13 13 12 11 10 9 8 8 8 7 7 7 6 7 8 9 7 6 4 1 6 8 8 8 8 7 9 10 11 13 16 17 17 17 19 22 26 27 25 26 26 24
25 26 26 26 26 25 26 26 26 28 28 27 27 26 23 23 22 21 21 20 18 18 18 19 19 19 20 19 17 19 23 26 26 25 23 22 20 18 17 17 17 16 15 14 13 12 10 10 9 8 8 8 8 10 10 8 7 7 9 8 7 6 4 2 7 8 9 9 8 9 10 11 13 16 17 16 16 16 19 22 23 23 25 24 21
26 26 26 27 26 26 26 26 26 28 28 28 28 27 24 23 22 22 21 20 19 17 17 18 19 19 19 18 17 20 24 27 27 27 25 22 20 19 19 19 18 17 17 16 14 12 11 10 10 9 9 8 7 9 9 7 5 4 5 4 3 3 2 2 7 9 10 10 9 11 12 12 13 14 15 16 15 15 17 19 21 21 22 22 19
28 27 27 26 26 26 26 26 28 29 29 28 29 27 25 23 22 23 22 20 19 18 17 17 18 19 19 18 18 20 25 28 29 29 26 23 21 20 19 18 17 16 16 15 14 12 11 11 10 9 9 8 7 8 8 6 3 3 3 2 2 1 1 4 9 9 9 11 13 13 11 10 11 12 13 13 11 12 15 18 20 21 20 18 15
27 27 26 26 25 25 26 28 31 32 29 29 29 28 25 23 22 22 22 20 19 18 17 16 17 18 18 18 17 19 25 30 31 30 28 24 22 20 17 16 16 15 15 15 13 14 14 12 11 10 10 9 8 8 9 6 2 2 2 3 3 1 2 7 9 7 7 11 14 13 10 9 11 11 12 12 11 12 14 16 18 21 19 18 15
24 24 24 26 27 27 28 30 33 32 30 29 29 28 25 23 21 21 20 19 18 19 17 16 16 17 17 17 15 18 26 31 31 31 30 25 22 20 16 15 16 15 15 15 13 13 15 14 13 12 10 9 9 9 9 7 3 1 1 3 4 3 5 9 8 6 8 11 13 12 10 10 10 9 10 13 12 12 14 14 17 19 18 18 18
21 21 22 26 29 28 28 29 30 30 30 29 28 26 24 22 23 22 20 18 18 19 18 17 16 16 16 15 13 17 25 30 31 32 30 25 23 21 17 16 17 15 15 15 13 12 14 15 17 15 11 10 10 10 10 9 7 5 2 2 4 4 7 8 6 6 11 14 13 11 9 10 9 7 10 13 11 11 13 14 16 18 17 17 19
23 23 24 28 29 26 26 28 27 27 28 28 26 24 23 23 24 23 20 18 19 20 20 19 19 18 18 17 16 18 25 29 30 32 30 25 24 22 16 13 16 16 15 15 14 12 12 15 19 18 14 11 11 10 10 9 9 8 6 5 4 5 7 6 5 7 12 14 11 9 8 9 8 8 11 13 12 12 13 14 16 17 16 16 19
26 26 27 29 27 24 25 26 24 24 26 27 26 24 23 24 25 23 20 19 21 21 21 22 21 18 17 17 17 20 25 29 30 31 31 26 24 23 16 10 13 16 15 14 15 14 14 14 17 17 15 13 12 11 10 10 9 10 8 6 5 5 6 6 7 9 12 12 9 8 8 8 8 9 12 14 14 13 13 14 17 17 16 17 20
29 27 26 27 25 25 26 26 25 26 27 27 26 25 24 24 24 23 20 20 22 22 22 21 19 16 15 15 17 18 22 27 29 30 31 28 25 23 17 10 11 13 10 9 11 15 17 18 16 15 14 13 12 12 11 11 10 10 9 7 5 5 5 7 9 10 11 10 8 7 8 8 9 10 12 14 16 15 14 15 18 18 17 19 21
29 28 27 27 27 27 27 26 28 28 26 25 25 24 24 24 23 23 21 22 22 22 20 19 17 16 15 16 17 17 18 23 28 29 30 30 27 24 18 12 11 11 6 2 4 8 15 20 19 16 13 12 11 12 11 11 11 10 9 7 7 6 7 9 11 12 11 10 7 7 8 8 9 10 12 16 16 15 14 16 18 19 19 21 22
29 27 27 27 27 26 24 23 26 27 25 24 24 23 23 23 22 22 22 21 21 19 19 19 18 17 17 17 17 17 17 20 25 28 29 30 28 25 20 14 12 11 7 3 1 4 11 17 17 15 12 11 11 12 12 11 10 9 9 8 8 8 8 10 12 11 10 9 8 8 8 8 9 10 13 16 15 13 15 17 17 19 20 21 22
27 25 25 25 24 23 22 22 25 27 25 24 23 22 22 21 20 20 21 20 19 18 18 19 18 18 18 17 16 17 17 19 23 26 28 31 30 26 21 17 15 13 10 6 3 6 10 12 11 10 9 8 9 11 11 11 10 10 10 10 9 8 8 10 10 8 9 10 10 9 8 9 10 11 12 14 13 13 15 17 18 19 20 21 22
24 23 22 23 23 23 23 24 26 27 25 24 22 20 20 20 19 21 21 20 19 19 18 19 20 18 18 18 17 18 19 19 21 24 27 30 31 28 24 20 18 16 13 10 6 4 6 7 6 6 6 7 8 10 12 13 12 12 12 12 11 9 8 9 9 8 8 9 9 9 10 10 10 12 13 13 13 14 16 18 18 19 20 21 21
22 22 23 23 22 23 25 26 27 28 26 24 22 21 21 21 21 22 23 22 22 21 21 21 20 19 19 19 19 19 20 20 22 24 26 28 30 29 26 24 22 19 16 12 8 6 5 5 5 6 7 9 11 12 13 14 14 14 13 13 14 13 11 11 13 12 11 9 9 8 10 11 11 13 14 13 13 15 17 19 19 18 20 22 19
22 23 25 24 22 24 27 28 27 27 26 23 21 20 21 21 21 21 22 21 21 22 21 21 21 20 19 19 20 20 20 21 22 22 23 26 28 29 28 26 25 22 18 14 10 7 8 8 7 8 10 12 12 12 13 13 14 15 15 14 16 16 14 14 16 14 12 11 8 7 10 11 12 13 14 14 15 16 18 19 18 18 21 22 17
20 22 24 25 24 25 27 26 25 25 25 23 20 19 19 19 18 18 18 18 18 19 19 18 19 19 18 18 21 21 20 21 22 21 21 23 26 28 27 26 24 22 19 16 13 11 11 11 11 11 11 12 13 13 13 14 16 18 19 19 19 17 14 12 12 10 8 7 6 8 10 11 12 13 14 15 15 17 19 18 17 18 21 20 15
18 18 20 24 25 26 26 25 23 23 23 22 20 20 19 17 16 15 17 17 17 16 17 16 16 19 19 17 18 19 18 18 20 21 22 22 24 26 24 22 21 20 17 16 17 16 14 12 13 14 14 14 15 16 16 16 19 20 19 17 16 16 14 13 11 9 8 8 8 9 10 10 12 14 15 15 16 17 18 16 16 19 21 18 14
17 16 17 22 25 25 24 24 22 22 23 21 20 21 21 18 15 14 16 18 17 15 15 14 14 17 17 13 14 17 19 18 20 23 23 22 22 23 22 19 18 18 17 16 18 20 17 13 13 14 15 15 16 17 18 18 18 17 14 13 13 15 14 12 11 9 9 9 9 10 11 12 15 16 14 14 15 17 18 18 17 19 19 16 14
18 17 18 22 25 23 22 23 22 22 23 22 20 21 22 21 19 17 16 16 15 14 14 13 12 13 12 9 10 14 17 18 21 24 25 23 23 24 22 19 18 18 18 17 18 18 17 14 12 12 13 14 15 16 17 17 15 13 13 14 14 15 15 14 13 11 11 11 13 14 15 15 14 12 13 15 16 17 18 18 17 18 19 16 14
20 20 21 26 27 24 23 24 23 21 23 23 21 21 22 21 21 21 20 18 15 13 12 10 9 10 10 9 9 11 13 17 21 24 24 24 24 23 20 17 17 16 16 16 16 15 13 13 12 12 14 15 15 15 16 16 15 14 14 14 13 12 11 10 10 11 12 14 16 15 13 11 10 13 15 17 17 17 18 18 18 19 18 15 14
18 20 23 27 27 25 23 24 23 21 21 22 21 20 20 20 22 23 22 20 18 16 13 10 9 9 10 12 12 13 15 18 21 22 24 23 23 21 19 17 17 17 16 15 15 13 12 12 14 15 16 16 16 15 15 14 13 13 12 12 11 11 9 9 11 12 12 11 10 8 7 9 12 16 18 19 20 21 22 22 21 20 18 16 17
17 20 23 24 23 22 22 23 23 22 21 21 20 19 18 19 22 23 22 21 20 18 14 12 11 11 12 14 16 17 18 19 19 20 22 22 21 22 22 21 21 20 19 18 18 16 15 15 15 16 15 16 16 17 16 13 11 10 11 11 11 10 9 10 11 11 9 7 6 6 9 12 15 18 21 23 24 24 22 21 21 20 19 19 19
17 21 23 21 19 19 19 19 21 22 21 20 19 18 18 20 22 23 21 21 20 18 17 17 18 17 17 18 18 18 18 17 16 17 19 20 21 22 23 24 24 23 21 21 20 19 19 19 18 17 17 16 16 16 15 14 12 10 9 9 9 10 11 12 13 12 10 9 10 12 14 15 17 20 22 22 22 21 21 22 23 22 20 19 20
15 19 20 18 17 18 17 17 20 21 20 18 18 19 19 20 21 21 21 22 22 21 22 23 23 23 22 21 18 17 16 16 16 18 19 19 20 21 22 22 21 21 20 20 19 18 17 17 15 16 16 16 15 15 15 14 12 8 6 6 8 10 12 14 15 15 14 14 15 16 16 16 17 18 19 19 21 22 22 22 22 22 22 22 23
15 18 18 17 17 17 16 17 19 19 16 13 13 17 19 20 20 22 23 23 23 22 24 25 24 22 23 23 21 19 19 20 21 21 20 19 19 20 21 21 20 20 20 19 19 18 17 15 12 12 13 14 14 15 14 12 9 7 7 9 10 10 8 8 9 10 11 12 14 14 15 17 18 18 19 20 21 21 20 21 24 25 24 23 22
14 17 17 17 17 16 15 18 19 17 15 13 14 16 19 19 21 23 24 23 22 21 22 23 22 21 23 26 26 25 25 25 24 23 22 20 19 19 20 22 22 21 20 19 18 18 16 14 13 13 13 13 12 12 11 8 6 7 8 9 9 8 7 8 10 11 13 15 17 17 18 18 17 17 17 18 18 19 21 23 24 23 20 19 19
14 17 19 18 17 15 16 17 17 17 19 19 17 18 19 20 21 23 23 23 22 19 18 20 21 21 23 27 28 28 27 27 26 25 24 22 20 19 20 21 22 21 19 18 17 17 15 12 10 10 11 11 10 9 7 6 6 8 8 7 6 7 9 11 13 15 16 17 17 16 15 13 13 14 16 17 18 19 20 21 20 18 18 18 19
17 20 20 19 17 16 15 16 16 17 19 19 17 19 21 20 20 21 20 20 21 18 17 18 19 19 21 25 27 27 25 24 23 24 23 23 21 20 19 20 20 19 19 18 17 16 14 12 10 10 9 9 8 7 6 7 8 9 8 8 10 11 12 12 13 14 15 15 13 12 12 13 15 16 17 17 17 17 16 16 16 16 17 18 19
19 19 18 18 18 16 16 16 15 16 19 18 17 19 20 18 18 18 17 18 19 18 15 16 16 15 16 21 26 26 22 19 20 21 21 21 22 20 18 18 17 17 18 19 18 15 13 12 12 12 12 10 8 7 7 7 7 7 8 10 12 12 12 12 12 12 12 12 12 13 14 15 16 15 14 13 14 14 14 14 15 16 18 19 20
16 15 14 15 16 15 16 17 15 17 19 18 16 17 18 17 16 16 15 16 19 17 14 13 14 14 14 19 25 27 22 17 18 20 18 18 19 18 17 16 16 14 14 14 14 14 13 12 12 12 11 10 9 8 7 6 5 7 9 11 11 11 12 13 13 12 13 14 14 14 15 14 13 12 12 11 12 12 13 14 16 18 19 19 18
15 15 14 15 14 13 14 15 14 17 20 19 17 18 18 17 16 15 15 15 16 15 13 14 15 15 17 22 26 27 22 16 15 17 17 16 16 15 14 14 12 10 10 10 11 12 13 12 11 10 9 9 9 8 7 7 9 11 12 12 12 12 13 13 12 12 13 14 14 14 14 13 11 10 11 11 11 12 14 15 16 16 16 16 17
16 16 16 16 14 14 14 13 13 16 19 18 18 19 18 16 16 16 15 16 17 16 15 15 16 17 19 22 25 25 21 15 13 15 15 14 14 13 13 11 10 9 9 10 11 12 12 12 11 10 10 10 9 8 7 8 10 11 12 13 13 13 12 11 12 13 13 14 13 13 11 9 8 7 8 11 12 13 14 14 13 13 15 16 17
15 16 17 17 16 16 15 14 15 16 16 16 16 16 14 14 15 16 15 15 17 17 16 16 16 17 19 21 23 23 20 15 14 15 16 15 13 13 12 12 11 10 10 10 11 11 12 12 12 12 11 11 9 8 8 9 12 13 13 13 13 12 11 11 12 13 12 11 10 8 6 5 6 6 9 11 12 12 12 11 11 13 15 16 17
13 14 16 17 17 17 17 17 17 16 14 14 14 13 11 13 17 18 16 15 15 15 15 16 16 16 17 19 21 21 19 17 15 15 15 15 15 14 13 11 10 9 9 10 11 12 12 12 12 12 12 11 10 10 11 12 13 13 13 12 10 10 10 10 10 9 8 7 6 4 4 5 6 8 10 11 11 10 10 11 12 14 15 15 16
12 13 15 16 17 17 18 17 16 14 14 15 16 15 14 16 19 19 17 16 15 14 15 17 17 17 17 18 18 18 17 16 14 13 13 13 13 12 11 9 9 10 12 13 13 12 12 11 11 11 10 9 10 11 12 12 12 11 10 10 9 9 8 7 6 5 5 5 4 3 3 5 8 9 9 8 7 8 10 12 13 14 14 14 15
13 14 15 17 17 18 18 17 15 14 15 17 18 17 16 17 18 18 18 17 16 15 16 18 18 18 17 16 15 14 13 14 13 12 12 11 10 9 10 11 12 12 13 13 12 11 11 10 10 10 9 8 9 10 10 10 10 9 8 8 7 6 5 4 4 4 4 3 3 3 4 6 7 7 7 6 7 9 11 11 12 12 13 13 15
14 14 15 16 16 17 17 17 15 15 16 17 17 17 17 16 16 17 17 18 17 17 18 18 17 16 15 14 13 13 13 13 13 12 11 11 11 11 13 14 14 13 12 12 11 11 11 10 10 9 8 8 8 8 8 8 7 6 5 4 3 2 2 3 3 3 3 3 3 3 4 6 6 5 5 7 9 10 10 10 11 12 13 14 14
Wind_Direction
166 166 164 162 161 161 160 158 155 159 165 166 163 161 161 162 163 165 163 160 156 153 150 149 146 143 142 142 144 145 145 144 142 139 135 132 130 128 127 125 121 117 114 110 107 105 103 99 94 91 92 86 76 72 66 59 57 56 55 53 47 41 37 33 21 358 360 359 355 358 357 355 356 353 351 351 351 353 355 355 356 360 359 358 1
164 164 162 161 160 159 158 156 156 161 163 163 162 159 160 163 163 163 162 159 155 152 150 148 146 145 144 146 149 149 149 147 145 142 138 135 132 131 131 129 124 121 118 115 112 111 108 103 96 90 86 83 77 71 62 58 59 55 53 51 44 40 35 29 17 359 350 350 355 0 358 358 357 354 351 349 349 351 353 353 356 360 359 357 358
164 161 158 158 160 160 158 155 157 159 159 159 159 159 162 163 161 160 159 158 156 153 152 149 148 149 148 149 152 152 151 150 148 145 140 137 136 136 136 132 128 125 121 118 115 114 111 106 100 94 87 82 78 73 62 57 56 54 52 47 40 37 32 23 13 0 345 342 356 3 359 0 359 353 350 347 348 351 352 353 355 358 360 358 357
165 162 157 157 159 160 157 155 157 158 157 158 158 158 159 158 157 159 158 157 156 155 154 151 151 151 152 154 156 155 154 152 149 146 143 141 140 139 137 133 130 128 124 122 119 116 114 109 101 95 93 89 82 74 67 61 55 52 50 45 39 31 23 19 10 360 345 341 359 6 360 0 358 351 349 348 348 350 352 353 354 355 357 356 356
164 160 158 156 156 158 157 158 159 159 159 160 158 156 155 154 157 159 157 156 157 156 156 155 155 156 157 159 159 157 157 154 151 149 147 145 142 140 139 136 134 132 127 125 123 120 117 112 105 101 100 95 88 78 67 60 55 51 48 43 37 27 19 16 8 0 352 352 5 6 359 358 354 350 351 349 348 349 350 352 354 356 356 353 354
159 158 159 157 155 157 160 160 161 161 160 159 157 155 154 154 157 160 159 158 159 159 159 159 160 160 162 162 161 159 158 156 155 152 148 147 145 144 143 140 137 133 128 125 124 122 118 111 107 106 106 104 98 87 72 62 53 51 51 45 38 29 20 15 10 2 357 3 13 6 359 358 352 349 351 351 350 349 347 348 352 356 355 350 351
156 156 158 159 159 160 163 163 162 162 162 159 155 154 154 155 158 161 161 161 161 161 163 163 163 164 165 164 162 161 159 157 156 153 151 151 150 148 145 140 136 132 129 127 126 124 122 122 125 128 131 136 138 131 106 80 59 57 63 56 46 35 24 17 12 4 359 9 17 6 358 357 352 348 347 348 352 352 349 346 346 350 353 348 348
155 154 154 157 162 165 166 165 162 163 162 158 155 153 155 157 160 162 163 163 163 164 166 166 165 167 166 165 164 162 161 159 158 155 154 154 152 149 146 142 140 136 133 131 129 131 137 143 145 145 145 148 150 143 125 103 86 77 75 70 60 49 34 22 16 7 1 8 16 7 358 356 351 347 346 348 352 352 351 347 340 343 348 346 348
154 153 154 159 163 165 165 163 162 163 160 157 156 156 156 158 162 165 165 163 165 168 169 167 168 168 166 165 164 163 162 161 161 159 158 156 153 151 149 147 144 140 136 134 132 138 149 148 140 133 129 127 128 130 123 107 95 83 75 73 68 61 49 32 21 10 2 6 13 5 359 356 352 349 348 349 350 346 347 346 340 341 344 341 345
155 153 155 161 163 163 164 162 162 162 159 156 157 157 157 161 163 165 165 164 168 171 169 169 171 169 167 166 164 163 164 165 164 163 160 158 155 153 152 150 146 144 141 138 139 146 148 139 132 128 123 119 118 118 112 101 93 84 77 72 65 61 57 45 32 15 3 3 6 5 3 357 352 352 349 346 347 345 344 344 339 339 342 339 341
157 155 157 162 161 160 161 161 161 161 159 158 159 157 159 163 163 163 164 166 170 172 170 172 172 170 169 166 164 166 169 168 166 163 160 158 157 155 153 151 149 147 144 144 147 149 143 137 133 129 123 118 113 110 106 98 90 82 75 67 60 54 50 47 43 28 14 3 358 2 6 355 347 348 346 342 345 346 344 343 338 336 340 337 333
156 156 159 162 162 160 160 160 160 160 159 161 162 159 160 163 162 162 166 169 171 171 172 174 173 171 170 166 166 171 172 170 168 163 160 159 158 156 154 153 152 150 149 151 152 147 141 138 137 135 131 125 116 110 105 97 81 63 53 48 44 44 41 42 44 37 27 10 353 354 359 351 339 338 339 338 340 343 343 343 338 333 336 334 328
157 160 161 162 163 163 162 161 159 160 161 163 165 163 161 162 162 164 168 169 170 171 175 176 173 173 170 167 170 174 173 172 169 164 162 161 158 156 157 155 153 151 153 156 156 152 148 149 153 157 157 152 154 196 229 264 298 313 311 307 327 7 30 33 36 33 26 13 352 342 341 336 326 327 335 335 334 338 341 340 336 332 335 332 328
161 163 161 160 160 161 162 162 161 162 163 165 166 165 163 162 163 166 168 168 169 172 176 176 175 175 172 169 173 175 174 174 171 167 165 163 158 155 155 153 152 156 161 161 161 162 162 163 165 164 169 182 202 213 224 248 265 275 277 274 273 265 310 29 32 27 15 4 346 332 327 327 322 322 330 331 326 329 334 334 332 332 336 334 335
162 162 162 161 161 160 161 163 164 165 166 167 168 168 165 163 165 169 169 169 172 175 178 178 176 176 175 173 174 176 177 178 175 170 167 164 158 154 155 159 159 162 164 162 163 168 171 171 170 173 188 203 208 206 214 227 236 259 273 270 266 251 229 31 20 7 357 349 338 329 324 326 323 319 321 319 316 324 331 332 332 334 338 338 342
161 163 165 164 164 165 165 164 166 168 169 170 171 171 168 167 170 173 171 172 176 178 179 180 179 177 177 177 177 177 179 180 178 173 169 165 159 156 161 166 164 162 161 162 165 170 171 170 172 187 206 209 201 200 206 210 217 268 290 272 269 254 203 6 346 343 344 335 324 321 318 321 325 324 323 314 308 320 329 330 334 339 340 338 339
162 165 167 166 168 170 169 166 165 167 169 171 173 172 170 170 174 175 173 174 178 179 178 181 182 180 180 180 180 180 181 182 182 177 171 167 162 159 162 164 163 162 162 163 166 169 171 172 174 194 216 213 201 195 190 191 222 304 315 276 288 275 153 334 330 335 333 315 311 317 318 323 330 334 336 328 320 327 322 319 333 344 340 333 331
163 165 166 168 170 171 172 171 169 168 171 172 172 171 170 173 175 175 174 176 178 179 179 181 183 185 184 184 186 186 183 183 183 180 175 170 164 160 161 162 161 164 167 166 168 176 183 184 180 194 215 218 209 200 193 196 226 346 321 290 312 330 307 320 327 336 326 308 310 320 328 334 334 341 353 353 350 350 333 324 337 345 336 328 331
161 164 164 165 170 173 174 173 170 169 171 173 172 170 171 174 175 174 176 179 178 179 182 183 184 186 185 182 186 191 187 184 185 183 179 174 167 161 163 167 167 170 172 169 173 188 195 193 190 197 210 214 212 208 202 205 212 197 294 306 315 308 309 319 327 329 320 313 315 321 332 340 339 351 6 356 349 354 351 343 342 339 330 329 336
168 172 169 167 172 176 174 172 172 171 171 171 170 171 172 174 174 175 178 179 179 181 185 184 181 180 178 174 182 195 191 186 186 187 183 177 170 165 164 171 176 177 177 176 181 195 203 201 200 204 211 212 213 213 210 213 220 217 224 284 284 285 305 320 330 323 313 314 320 327 336 343 343 357 1 349 342 350 353 351 346 339 333 334 335
174 177 175 172 173 172 169 169 171 172 170 167 167 171 175 173 171 172 178 182 182 181 180 178 175 172 174 178 186 195 194 189 188 189 184 177 174 171 167 171 178 181 184 185 186 194 205 207 206 209 217 220 215 213 216 220 224 227 232 246 267 290 309 316 327 328 318 318 327 335 339 343 346 355 353 345 344 348 348 350 350 344 339 335 327
175 173 172 171 170 166 165 167 166 165 166 167 168 170 171 169 168 172 179 181 178 173 169 170 169 166 171 182 187 192 196 195 192 190 186 181 178 177 172 166 174 182 188 192 196 202 208 210 210 212 215 217 216 215 220 223 226 234 241 244 258 285 300 299 302 314 317 320 327 332 334 341 347 351 350 346 342 342 343 346 347 345 340 335 329
176 174 168 167 166 162 163 167 166 163 164 166 166 163 162 164 167 173 176 172 166 164 163 165 165 165 173 184 188 194 201 201 196 193 189 185 184 186 183 171 171 176 177 187 204 210 209 208 210 208 206 211 217 218 222 227 231 240 247 246 256 275 287 294 301 309 311 310 317 328 335 345 348 345 345 341 335 335 341 343 344 344 339 335 335
170 170 166 164 163 161 164 168 167 163 161 161 158 156 158 161 164 169 170 165 160 160 164 168 171 175 181 186 189 195 203 204 200 197 193 190 190 193 192 186 182 176 156 147 221 215 205 204 203 198 199 210 218 221 226 231 235 244 247 247 258 265 271 286 298 305 308 309 319 330 332 342 346 341 338 335 330 334 342 341 341 344 340 336 337
164 163 160 159 158 156 157 160 161 161 161 161 158 157 159 159 161 165 168 166 163 165 170 178 184 187 188 187 186 188 196 201 201 199 196 194 196 199 199 198 197 188 167 130 77 141 173 187 189 188 196 210 219 225 231 233 239 249 247 247 257 261 270 289 299 305 310 315 322 325 328 339 342 336 332 330 328 336 343 340 340 343 341 337 338
162 158 156 155 154 153 153 154 157 160 161 163 163 164 166 166 167 170 172 173 174 177 180 186 190 191 190 190 187 184 187 194 199 200 198 198 201 205 205 204 208 205 190 170 124 118 144 163 171 179 196 214 224 231 232 230 237 244 241 243 252 255 265 281 290 303 315 313 311 319 329 333 334 333 330 328 333 344 346 341 337 338 338 334 332
163 159 157 155 154 155 156 157 158 159 160 162 165 170 175 177 177 178 180 183 185 186 189 190 191 192 191 190 189 186 184 188 195 199 200 201 205 209 209 208 212 214 206 198 193 171 160 166 177 193 216 236 242 243 239 234 237 243 243 241 244 250 262 266 267 285 305 299 296 313 327 326 328 331 328 329 339 347 344 338 332 333 335 330 324
160 156 156 157 156 157 159 160 160 160 162 165 169 172 176 179 181 183 185 187 187 189 192 192 193 194 191 188 189 189 188 189 194 199 201 201 204 208 212 212 212 215 215 212 213 220 219 219 227 235 246 256 258 253 247 243 246 250 249 244 245 254 257 246 248 269 284 273 273 305 324 322 325 329 326 328 340 343 338 332 328 331 331 322 318
160 155 156 159 159 160 163 163 161 162 165 168 171 174 178 182 185 186 188 190 193 193 192 192 195 196 194 192 192 192 192 193 196 200 203 203 204 206 210 212 213 216 219 216 208 213 226 227 231 241 246 248 251 252 247 247 251 252 252 251 252 256 254 242 245 262 267 253 264 310 320 314 318 325 326 329 333 333 329 327 328 332 328 320 326
160 158 161 163 162 162 165 166 165 165 166 167 168 171 177 184 188 188 188 194 200 199 196 197 197 196 198 201 200 199 199 197 197 202 204 204 207 208 209 212 215 216 221 222 214 212 223 224 223 230 236 235 237 241 240 241 246 247 247 248 243 240 244 250 259 272 271 257 282 309 303 303 315 320 319 320 322 322 324 326 330 329 322 320 338
161 160 164 168 168 167 167 168 169 169 169 169 168 166 167 176 185 187 187 193 199 199 201 204 201 196 200 207 204 201 199 195 198 205 205 202 204 206 206 212 216 215 218 223 217 214 223 232 229 228 230 231 232 235 237 240 245 246 247 249 241 233 236 244 249 260 271 278 294 299 294 299 306 302 299 305 314 321 323 324 325 321 315 319 341
165 162 166 172 173 172 170 169 169 169 171 171 167 164 163 165 167 171 180 190 195 195 196 199 194 190 197 205 204 201 202 203 205 205 199 192 194 198 200 207 216 216 215 218 217 215 222 237 242 234 232 236 238 238 239 242 245 248 250 255 251 244 243 244 240 244 254 265 282 293 291 288 287 288 297 311 320 324 321 317 317 316 313 321 339
168 165 167 171 173 174 174 174 173 173 174 173 168 168 170 167 160 154 159 172 181 182 182 186 185 182 184 189 193 196 200 202 200 193 186 183 186 190 192 196 205 210 211 212 213 215 223 242 256 251 247 252 252 249 247 247 248 251 256 257 255 250 246 245 244 244 244 250 264 275 275 276 285 303 318 319 317 314 311 310 313 313 311 318 331
171 171 173 173 174 176 177 178 178 178 180 179 177 176 178 175 168 161 153 151 152 153 154 159 167 171 167 160 160 166 169 174 177 176 175 177 180 183 183 183 188 196 203 205 209 215 228 246 260 261 261 264 263 259 258 254 249 249 252 256 262 262 256 253 253 250 246 249 257 263 266 278 307 322 317 308 304 301 299 297 297 297 299 308 318
174 179 183 180 178 179 180 181 181 181 183 185 185 182 181 178 174 170 166 161 156 150 146 144 146 156 162 160 155 151 150 155 163 167 170 174 178 182 183 183 186 192 198 201 207 218 234 252 263 266 268 273 277 279 276 267 255 251 251 257 266 270 270 274 273 267 262 258 256 260 277 301 314 311 303 297 295 292 290 288 287 288 293 302 308
174 181 183 182 181 183 184 185 186 186 186 188 187 184 180 174 171 172 174 173 165 159 156 154 148 148 156 160 158 154 151 153 160 168 173 179 186 190 192 193 195 198 201 204 209 217 227 240 254 264 269 276 284 292 295 290 278 269 263 263 268 271 273 276 275 271 269 264 263 284 305 311 309 301 294 292 290 289 290 295 299 300 302 305 304
174 177 178 177 180 183 184 185 187 186 185 185 186 186 181 172 169 171 174 173 170 167 166 165 162 156 153 154 157 159 160 162 169 178 183 188 194 199 200 201 202 203 206 210 215 219 225 232 242 252 262 271 282 292 300 301 295 284 272 264 264 268 272 275 276 277 278 282 293 305 309 304 299 297 295 295 296 300 306 310 309 307 307 308 308
167 171 173 171 173 177 180 182 185 186 186 186 185 182 177 171 170 171 172 173 176 176 173 173 174 170 165 164 167 171 172 173 176 182 187 191 196 200 203 203 202 204 209 210 210 212 217 223 231 241 248 257 270 282 291 296 295 293 293 294 291 284 275 268 268 275 283 290 296 299 297 293 293 299 304 308 311 313 314 314 316 318 318 316 313
158 165 169 164 164 170 175 178 181 183 182 179 174 170 169 168 168 167 169 173 176 175 173 176 180 182 183 184 184 182 182 183 183 184 185 187 190 195 198 197 196 200 206 209 207 209 213 217 224 234 237 243 255 267 274 278 280 283 296 304 302 298 292 283 282 290 299 301 298 292 290 293 299 303 306 309 311 311 312 316 322 323 320 317 316
159 168 172 167 163 167 172 173 173 169 165 168 172 169 167 165 162 161 163 167 167 168 173 179 183 189 196 199 196 193 191 190 188 187 185 184 187 191 194 195 196 200 206 210 211 212 212 215 222 228 231 237 248 255 256 259 272 286 291 295 296 298 303 306 306 306 306 303 299 295 292 293 297 300 301 303 306 308 313 318 321 321 321 323 327
165 169 173 170 165 163 165 167 166 163 166 173 176 171 166 165 162 161 162 164 166 171 180 185 188 197 207 209 206 202 198 193 189 189 191 192 193 196 198 199 202 207 210 214 216 217 218 221 224 227 231 238 243 242 239 249 276 284 281 283 295 304 306 304 301 299 297 295 294 293 291 291 295 300 304 308 311 314 317 320 322 325 328 332 334
164 167 168 167 164 161 160 162 164 168 172 175 171 165 165 166 168 170 172 175 181 187 187 181 183 197 212 215 211 204 198 193 192 193 197 201 204 208 210 212 215 217 219 220 222 224 227 232 237 240 242 240 237 239 248 259 270 278 283 290 300 303 304 304 300 294 288 285 284 286 289 295 302 308 313 318 321 323 326 327 328 332 335 334 334
157 160 162 163 164 164 163 163 165 169 174 175 170 167 168 169 171 177 180 179 182 187 184 175 177 192 211 216 211 202 194 192 195 196 201 209 214 218 223 227 231 234 234 232 230 230 232 238 245 250 252 250 247 254 261 257 258 269 279 287 294 297 296 294 290 283 278 277 278 284 294 304 312 316 320 322 324 325 328 330 331 333 333 332 333
153 153 155 158 160 161 163 165 165 167 173 175 171 170 173 175 175 177 176 173 176 182 180 174 176 185 196 203 201 196 192 194 198 198 203 214 220 225 232 238 240 241 240 236 233 233 237 242 245 248 253 254 250 247 248 251 265 278 278 278 280 278 274 273 273 273 275 278 283 294 304 311 315 319 320 321 322 323 327 330 332 333 333 334 335
156 155 154 156 159 157 159 163 164 164 167 170 168 167 172 177 178 178 176 175 177 180 176 171 174 182 187 190 192 193 195 197 195 194 200 212 220 226 233 236 235 232 230 231 233 235 238 242 242 241 243 243 242 246 259 275 282 280 274 269 264 257 255 258 263 270 278 286 295 305 310 311 316 324 326 323 323 325 329 332 335 337 337 336 334
157 157 156 157 158 157 158 166 170 165 163 165 165 167 173 181 179 173 169 171 176 180 180 174 173 177 182 185 188 191 194 193 188 188 195 206 216 221 223 222 220 222 226 231 236 236 235 236 236 234 234 236 242 254 268 271 267 261 255 252 250 249 251 259 270 280 289 298 303 306 308 314 328 334 324 319 323 329 333 336 337 335 332 331 330
154 159 160 159 157 156 157 161 167 169 170 169 167 171 180 182 171 162 165 177 185 187 183 172 165 168 178 184 187 189 190 189 189 192 195 199 203 207 211 214 219 225 230 234 235 232 227 224 222 224 230 238 243 243 240 239 241 242 242 245 249 257 267 279 288 293 298 301 302 303 310 324 328 314 308 318 330 336 338 337 333 328 327 329 330
146 152 157 157 156 154 153 153 158 165 170 170 167 171 177 168 157 156 166 176 177 174 168 161 159 166 176 182 185 189 192 195 200 205 207 207 208 212 218 223 222 219 220 220 216 212 212 214 218 226 233 236 233 228 229 233 236 239 244 252 263 275 286 293 295 296 298 302 304 306 307 307 307 309 318 332 341 340 336 332 330 330 333 334 333
142 143 149 154 155 155 155 156 156 158 159 157 154 154 154 150 149 154 162 165 163 163 164 162 161 165 171 176 182 190 196 200 205 208 208 208 209 213 216 211 199 193 196 197 195 198 207 216 222 226 228 225 223 226 233 239 243 248 258 271 282 288 292 294 295 301 314 321 317 307 303 312 322 332 342 349 345 335 331 332 335 338 340 337 334
144 143 146 151 154 156 157 154 151 151 152 152 151 150 148 147 150 157 162 163 163 163 164 164 166 169 171 174 178 182 185 188 192 195 196 195 193 194 193 187 179 180 186 190 195 204 213 217 218 221 224 227 231 236 241 247 253 261 270 278 284 289 295 306 319 331 338 336 328 321 328 339 348 356 356 346 332 329 334 341 346 347 345 340 339
146 146 147 148 151 156 158 155 152 155 158 160 161 162 159 155 157 160 161 161 163 165 167 168 170 171 171 171 172 172 174 179 183 188 190 186 181 183 186 183 177 178 186 195 202 206 206 206 211 220 230 237 242 245 249 251 255 262 265 267 278 298 318 340 353 354 357 6 10 356 346 352 6 10 352 334 333 340 349 356 357 354 351 347 345